This demonstration page uses our WeatherBlox Daily Observations layout. Learn more.

Left ArrowRight Arrow

39.29038, -76.61219

Hourly Observations for January 22, 2017

Temp ( °F °C ) Dew Point ( °F °C ) Humidity (%) Winds ( mph kmh ) Pressure ( in mb ) Visibility ( mi km ) Precip ( " mm )
12:54 am 00:54 undefined 47 8.3 44 6.7 90 90 undefined N/A 29.75 1008 N/A 0.00 0.00
1:54 am 01:54 undefined 47 8.3 44 6.7 90 90 undefined N/A 29.74 1007 N/A 0.00 0.00
2:54 am 02:54 undefined 46 7.8 44 6.7 93 93 undefined N/A 29.74 1007 N/A 0.00 0.00
3:54 am 03:54 undefined 47 8.3 44 6.7 90 90 undefined N/A 29.72 1006 N/A 0.00 0.00
4:54 am 04:54 undefined 47 8.3 43 6.1 86 86 undefined N/A 29.68 1005 N/A 0.00 0.00
5:54 am 05:54 undefined 47 8.3 44 6.7 90 90 undefined N/A 29.70 1006 N/A 0.00 0.00
6:54 am 06:54 undefined 47 8.3 44 6.7 90 90 undefined N/A 29.69 1006 N/A 0.00 0.00
7:54 am 07:54 undefined 47 8.3 43 6.1 86 86 undefined N/A 29.69 1005 N/A 0.00 0.00
8:54 am 08:54 undefined 47 8.3 42 5.6 83 83 undefined N/A 29.72 1007 N/A 0.00 0.00
9:54 am 09:54 undefined 47 8.3 43 6.1 86 86 undefined N/A 29.73 1007 N/A 0.00 0.00
10:54 am 10:54 undefined 50 10 44 6.7 80 80 undefined N/A 29.75 1007 N/A 0.00 0.00
11:54 am 11:54 undefined 50 10 45 7.2 83 83 undefined N/A 29.69 1005 N/A 0.00 0.00
12:54 pm 12:54 undefined 51 10.6 45 7.2 80 80 undefined N/A 29.64 1004 N/A 0.00 0.00
1:54 pm 13:54 undefined 52 11.1 46 7.8 80 80 undefined N/A 29.60 1003 N/A 0.00 0.00
2:54 pm 14:54 undefined 53 11.7 47 8.3 80 80 undefined N/A 29.61 1003 N/A 0.00 0.00
3:54 pm 15:54 undefined 52 11.1 49 9.4 89 89 undefined N/A 29.66 1004 N/A 0.03 0.76
4:54 pm 16:54 undefined 51 10.6 48 8.9 89 89 undefined N/A 29.64 1004 N/A 0.03 0.76
5:54 pm 17:54 undefined 50 10 47 8.3 89 89 undefined N/A 29.63 1003 N/A 0.01 0.25
6:54 pm 18:54 undefined 51 10.6 47 8.3 86 86 undefined N/A 29.66 1004 N/A 0.00 0.00
7:54 pm 19:54 undefined 51 10.6 47 8.3 86 86 undefined N/A 29.65 1004 N/A 0.00 0.00
8:54 pm 20:54 undefined 51 10.6 47 8.3 86 86 undefined N/A 29.64 1004 N/A 0.00 0.00
9:54 pm 21:54 undefined 50 10 47 8.3 89 89 undefined N/A 29.65 1004 N/A 0.01 0.25
10:54 pm 22:54 undefined 50 10 46 7.8 86 86 undefined N/A 29.66 1005 N/A 0.00 0.00
11:54 pm 23:54 undefined 50 10 46 7.8 86 86 undefined N/A 29.66 1004 N/A 0.00 0.00

Powered by AerisWeather